• In Kazakhstan
  • List of Countries
  • For 7 days
  • Water Temperature
  • Satellite Maps
  • Weather Map
  • News
  • Weather Widgets
  • user-avatar
    Login

    Hourly Weather Marmaris

    Today, 21 November, Tuesday

    Time Temperature Precipitation Wind Pressure Humidity
    00:00 +7°C° 0 mm 8 mps 754 mmHg 85%
    01:00 +8°C° 0 mm 7 mps 754 mmHg 85%
    02:00 +6°C° 0 mm 7 mps 755 mmHg 85%
    03:00 +6°C° 0 mm 7 mps 755 mmHg 84%
    04:00 +6°C° 0 mm 7 mps 756 mmHg 83%
    05:00 +5°C° 0 mm 6 mps 756 mmHg 82%
    06:00 +5°C° 0 mm 6 mps 757 mmHg 80%
    07:00 +7°C° 0 mm 6 mps 757 mmHg 78%
    08:00 +7°C° 0 mm 6 mps 758 mmHg 77%
    09:00 +8°C° 0 mm 6 mps 758 mmHg 68%
    10:00 +9°C° 0 mm 6 mps 758 mmHg 59%
    11:00 +10°C° 0 mm 7 mps 758 mmHg 51%
    12:00 +11°C° 0 mm 7 mps 758 mmHg 47%
    13:00 +11°C° 0 mm 7 mps 758 mmHg 43%
    14:00 +11°C° 0 mm 7 mps 758 mmHg 39%
    15:00 +10°C° 0 mm 7 mps 759 mmHg 43%
    16:00 +9°C° 0 mm 6 mps 759 mmHg 47%
    17:00 +8°C° 0 mm 6 mps 759 mmHg 51%
    18:00 +7°C° 0 mm 6 mps 759 mmHg 54%
    19:00 +6°C° 0 mm 5 mps 760 mmHg 57%
    20:00 +6°C° 0 mm 5 mps 760 mmHg 60%
    21:00 +5°C° 0 mm 5 mps 760 mmHg 61%
    22:00 +5°C° 0 mm 5 mps 761 mmHg 62%
    23:00 +5°C° 0 mm 5 mps 761 mmHg 63%

    Tomorrow, 22 November, Wednesday

    Time Temperature Precipitation Wind Pressure Humidity
    00:00 +5°C° 0 mm 5 mps 761 mmHg 63%
    01:00 +3°C° 0 mm 5 mps 761 mmHg 63%
    02:00 +3°C° 0 mm 5 mps 761 mmHg 63%
    03:00 +3°C° 0 mm 5 mps 761 mmHg 62%
    04:00 +3°C° 0 mm 5 mps 761 mmHg 61%
    05:00 +3°C° 0 mm 5 mps 761 mmHg 61%
    06:00 +5°C° 0 mm 5 mps 761 mmHg 57%
    07:00 +5°C° 0 mm 5 mps 761 mmHg 54%
    08:00 +6°C° 0 mm 5 mps 761 mmHg 51%
    09:00 +8°C° 0 mm 5 mps 761 mmHg 43%
    10:00 +12°C° 0 mm 4 mps 761 mmHg 36%
    11:00 +14°C° 0 mm 4 mps 761 mmHg 28%
    12:00 +15°C° 0 mm 4 mps 761 mmHg 29%
    13:00 +15°C° 0 mm 4 mps 761 mmHg 29%
    14:00 +17°C° 0 mm 4 mps 760 mmHg 30%
    15:00 +14°C° 0 mm 4 mps 760 mmHg 35%
    16:00 +13°C° 0 mm 4 mps 760 mmHg 40%
    17:00 +11°C° 0 mm 4 mps 760 mmHg 46%
    18:00 +10°C° 0 mm 4 mps 761 mmHg 47%
    19:00 +10°C° 0 mm 4 mps 761 mmHg 49%
    20:00 +8°C° 0 mm 4 mps 761 mmHg 51%
    21:00 +8°C° 0 mm 4 mps 761 mmHg 51%
    22:00 +8°C° 0 mm 4 mps 762 mmHg 52%
    23:00 +9°C° 0 mm 3 mps 762 mmHg 52%

    Day after tomorrow, 23 November, Thursday

    Time Temperature Precipitation Wind Pressure Humidity
    00:00 +9°C° 0 mm 3 mps 762 mmHg 53%
    01:00 +9°C° 0 mm 3 mps 761 mmHg 53%
    02:00 +9°C° 0 mm 3 mps 761 mmHg 54%
    03:00 +9°C° 0 mm 3 mps 761 mmHg 54%
    04:00 +9°C° 0 mm 3 mps 761 mmHg 55%
    05:00 +9°C° 0 mm 3 mps 761 mmHg 55%
    06:00 +9°C° 0 mm 3 mps 761 mmHg 55%
    07:00 +10°C° 0 mm 3 mps 761 mmHg 54%
    08:00 +10°C° 0 mm 3 mps 762 mmHg 54%
    09:00 +14°C° 0 mm 2 mps 762 mmHg 47%
    10:00 +16°C° 0 mm 2 mps 762 mmHg 41%
    11:00 +19°C° 0 mm 2 mps 762 mmHg 35%
    12:00 +19°C° 0 mm 2 mps 761 mmHg 35%
    13:00 +20°C° 0 mm 2 mps 761 mmHg 34%
    14:00 +20°C° 0 mm 3 mps 761 mmHg 34%
    15:00 +19°C° 0 mm 3 mps 761 mmHg 39%
    16:00 +17°C° 0 mm 3 mps 761 mmHg 45%
    17:00 +14°C° 0 mm 3 mps 761 mmHg 51%
    18:00 +13°C° 0 mm 3 mps 761 mmHg 52%
    19:00 +13°C° 0 mm 3 mps 761 mmHg 54%
    20:00 +12°C° 0 mm 3 mps 762 mmHg 56%
    21:00 +12°C° 0 mm 3 mps 762 mmHg 56%
    22:00 +11°C° 0 mm 3 mps 762 mmHg 56%
    23:00 +11°C° 0 mm 3 mps 762 mmHg 57%

    24 November, Friday

    Time Temperature Precipitation Wind Pressure Humidity
    00:00 +11°C° 0 mm 3 mps 762 mmHg 57%
    01:00 +11°C° 0 mm 3 mps 762 mmHg 57%
    02:00 +10°C° 0 mm 3 mps 761 mmHg 58%
    03:00 +10°C° 0 mm 3 mps 761 mmHg 58%
    04:00 +10°C° 0 mm 3 mps 761 mmHg 58%
    05:00 +10°C° 0 mm 3 mps 761 mmHg 58%
    06:00 +10°C° 0 mm 3 mps 761 mmHg 57%
    07:00 +11°C° 0 mm 3 mps 762 mmHg 56%
    08:00 +11°C° 0 mm 3 mps 762 mmHg 55%
    09:00 +15°C° 0 mm 2 mps 762 mmHg 47%
    10:00 +17°C° 0 mm 2 mps 762 mmHg 40%
    11:00 +20°C° 0 mm 2 mps 762 mmHg 33%
    12:00 +20°C° 0 mm 2 mps 761 mmHg 32%
    13:00 +21°C° 0 mm 2 mps 761 mmHg 31%
    14:00 +23°C° 0 mm 2 mps 761 mmHg 29%
    15:00 +20°C° 0 mm 2 mps 761 mmHg 35%
    16:00 +18°C° 0 mm 2 mps 761 mmHg 41%
    17:00 +16°C° 0 mm 2 mps 761 mmHg 48%
    18:00 +15°C° 0 mm 2 mps 761 mmHg 49%
    19:00 +14°C° 0 mm 2 mps 761 mmHg 50%
    20:00 +14°C° 0 mm 2 mps 762 mmHg 51%
    21:00 +13°C° 0 mm 2 mps 762 mmHg 51%
    22:00 +13°C° 0 mm 2 mps 762 mmHg 51%
    23:00 +13°C° 0 mm 2 mps 762 mmHg 51%

    25 November, Saturday

    Time Temperature Precipitation Wind Pressure Humidity
    00:00 +12°C° 0 mm 2 mps 762 mmHg 51%
    01:00 +12°C° 0 mm 2 mps 762 mmHg 50%
    02:00 +12°C° 0 mm 2 mps 762 mmHg 50%
    03:00 +12°C° 0 mm 2 mps 762 mmHg 50%
    04:00 +12°C° 0 mm 2 mps 762 mmHg 50%
    05:00 +10°C° 0 mm 2 mps 762 mmHg 50%
    06:00 +12°C° 0 mm 2 mps 762 mmHg 50%
    07:00 +12°C° 0 mm 2 mps 762 mmHg 50%
    08:00 +13°C° 0 mm 2 mps 763 mmHg 49%
    09:00 +15°C° 0 mm 2 mps 763 mmHg 44%
    10:00 +18°C° 0 mm 1 mps 763 mmHg 38%
    11:00 +21°C° 0 mm 1 mps 763 mmHg 33%
    12:00 +21°C° 0 mm 1 mps 762 mmHg 33%
    13:00 +21°C° 0 mm 1 mps 762 mmHg 33%
    14:00 +21°C° 0 mm 1 mps 762 mmHg 33%
    15:00 +20°C° 0 mm 1 mps 762 mmHg 40%
    16:00 +18°C° 0 mm 1 mps 762 mmHg 47%
    17:00 +15°C° 0 mm 1 mps 762 mmHg 54%
    18:00 +15°C° 0 mm 1 mps 762 mmHg 55%
    19:00 +14°C° 0 mm 1 mps 763 mmHg 56%
    20:00 +14°C° 0 mm 2 mps 763 mmHg 57%
    21:00 +13°C° 0 mm 2 mps 763 mmHg 56%
    22:00 +13°C° 0 mm 2 mps 763 mmHg 55%
    23:00 +13°C° 0 mm 2 mps 764 mmHg 54%

    26 November, Sunday

    Time Temperature Precipitation Wind Pressure Humidity
    00:00 +13°C° 0 mm 2 mps 764 mmHg 53%
    01:00 +12°C° 0 mm 2 mps 764 mmHg 53%
    02:00 +12°C° 0 mm 2 mps 764 mmHg 52%
    03:00 +12°C° 0 mm 2 mps 763 mmHg 52%
    04:00 +12°C° 0 mm 2 mps 763 mmHg 52%
    05:00 +12°C° 0 mm 2 mps 763 mmHg 52%
    06:00 +12°C° 0 mm 2 mps 763 mmHg 51%
    07:00 +12°C° 0 mm 2 mps 764 mmHg 51%
    08:00 +13°C° 0 mm 2 mps 764 mmHg 50%
    09:00 +15°C° 0 mm 1 mps 764 mmHg 44%
    10:00 +18°C° 0 mm 1 mps 764 mmHg 39%
    11:00 +21°C° 0 mm 1 mps 764 mmHg 33%
    12:00 +21°C° 0 mm 1 mps 763 mmHg 32%
    13:00 +21°C° 0 mm 1 mps 763 mmHg 32%
    14:00 +21°C° 0 mm 2 mps 763 mmHg 31%
    15:00 +19°C° 0 mm 2 mps 763 mmHg 37%
    16:00 +17°C° 0 mm 2 mps 763 mmHg 43%
    17:00 +15°C° 0 mm 2 mps 763 mmHg 49%
    18:00 +15°C° 0 mm 2 mps 763 mmHg 50%
    19:00 +14°C° 0 mm 2 mps 763 mmHg 51%
    20:00 +13°C° 0 mm 2 mps 763 mmHg 52%
    21:00 +13°C° 0 mm 2 mps 763 mmHg 51%
    22:00 +13°C° 0 mm 2 mps 763 mmHg 51%
    23:00 +12°C° 0 mm 2 mps 763 mmHg 50%
    Show more